Location: Devore Heights
(34.2372°N, 117.4156°W)
Time: 08:25:46
(UTC+00:00)

A-11 Canister half - Pass Details

Date: 21 September 2024
Orbit: 1515 x 1684 km, 47.2° (Epoch: 07 October)

Event Time Altitude Azimuth Distance (km) Brightness Sun altitude
Rises 02:24:18 0° 268° (W) 4,755 13.8 -8.3°
Reaches altitude 10° 02:27:41 10° 275° (W) 3,749 12.8 -9.0°
Maximum altitude 02:36:30 42° 344° (NNW) 2,062 9.9 -10.8°
Drops below altitude 10° 02:45:11 10° 54° (NE) 3,678 10.6 -12.5°
Enters shadow 02:47:11 - 59° (ENE) 4,269 10.9 -13.0°
Sets 02:48:28 0° 61° (ENE) 4,658 - -13.2°
